• In Czech Republic
  • List of Countries
  • For 7 days
  • Water Temperature
  • Satellite Maps
  • Weather Map
  • Weather Widgets
  • user-avatar
    Login

    Hourly Weather Ixtenco

    Today, 24 November, Friday

    Time Temperature Precipitation Wind Pressure Humidity
    00:00 +7°C° 0 mm 1 mps 560 mmHg 82%
    01:00 +7°C° 0 mm 1 mps 560 mmHg 83%
    02:00 +6°C° 0 mm 1 mps 559 mmHg 84%
    03:00 +6°C° 0 mm 1 mps 559 mmHg 82%
    04:00 +6°C° 0 mm 1 mps 559 mmHg 81%
    05:00 +5°C° 0 mm 1 mps 559 mmHg 80%
    06:00 +7°C° 0 mm 1 mps 560 mmHg 70%
    07:00 +9°C° 0 mm 1 mps 561 mmHg 60%
    08:00 +11°C° 0 mm 1 mps 562 mmHg 50%
    09:00 +13°C° 0 mm 1 mps 563 mmHg 43%
    10:00 +15°C° 0 mm 1 mps 563 mmHg 36%
    11:00 +16°C° 0 mm 2 mps 564 mmHg 29%
    12:00 +17°C° 0 mm 2 mps 564 mmHg 29%
    13:00 +17°C° 0 mm 2 mps 564 mmHg 29%
    14:00 +18°C° 0 mm 3 mps 563 mmHg 29%
    15:00 +16°C° 0 mm 2 mps 563 mmHg 38%
    16:00 +14°C° 0 mm 2 mps 562 mmHg 47%
    17:00 +13°C° 0 mm 2 mps 561 mmHg 56%
    18:00 +12°C° 0 mm 1 mps 561 mmHg 62%
    19:00 +11°C° 0 mm 1 mps 561 mmHg 67%
    20:00 +10°C° 0 mm 1 mps 561 mmHg 72%
    21:00 +10°C° 0 mm 1 mps 561 mmHg 74%
    22:00 +9°C° 0 mm 1 mps 561 mmHg 76%
    23:00 +9°C° 0 mm 1 mps 560 mmHg 78%

    Tomorrow, 25 November, Saturday

    Time Temperature Precipitation Wind Pressure Humidity
    00:00 +9°C° 0 mm 1 mps 560 mmHg 78%
    01:00 +8°C° 0 mm 1 mps 560 mmHg 79%
    02:00 +8°C° 0 mm 1 mps 559 mmHg 79%
    03:00 +7°C° 0 mm 1 mps 559 mmHg 79%
    04:00 +7°C° 0 mm 1 mps 559 mmHg 78%
    05:00 +7°C° 0 mm 1 mps 559 mmHg 77%
    06:00 +9°C° 0 mm 1 mps 560 mmHg 67%
    07:00 +11°C° 0 mm 1 mps 562 mmHg 57%
    08:00 +13°C° 0 mm 1 mps 563 mmHg 47%
    09:00 +15°C° 0 mm 1 mps 564 mmHg 39%
    10:00 +16°C° 0 mm 1 mps 565 mmHg 32%
    11:00 +18°C° 0 mm 2 mps 565 mmHg 25%
    12:00 +19°C° 0 mm 2 mps 565 mmHg 24%
    13:00 +19°C° 0 mm 2 mps 565 mmHg 24%
    14:00 +20°C° 0 mm 2 mps 564 mmHg 24%
    15:00 +18°C° 0 mm 2 mps 564 mmHg 33%
    16:00 +16°C° 0 mm 2 mps 563 mmHg 42%
    17:00 +14°C° 0 mm 2 mps 562 mmHg 51%
    18:00 +13°C° 0 mm 2 mps 562 mmHg 57%
    19:00 +12°C° 0 mm 1 mps 562 mmHg 62%
    20:00 +11°C° 0 mm 1 mps 563 mmHg 68%
    21:00 +11°C° 0 mm 1 mps 562 mmHg 67%
    22:00 +10°C° 0 mm 1 mps 562 mmHg 67%
    23:00 +10°C° 0 mm 1 mps 562 mmHg 66%

    Day after tomorrow, 26 November, Sunday

    Time Temperature Precipitation Wind Pressure Humidity
    00:00 +9°C° 0 mm 1 mps 562 mmHg 63%
    01:00 +8°C° 0 mm 2 mps 562 mmHg 60%
    02:00 +7°C° 0 mm 2 mps 561 mmHg 57%
    03:00 +7°C° 0 mm 2 mps 561 mmHg 54%
    04:00 +6°C° 0 mm 2 mps 561 mmHg 51%
    05:00 +5°C° 0 mm 3 mps 561 mmHg 48%
    06:00 +8°C° 0 mm 3 mps 562 mmHg 43%
    07:00 +10°C° 0 mm 3 mps 564 mmHg 38%
    08:00 +11°C° 0 mm 4 mps 565 mmHg 33%
    09:00 +13°C° 0 mm 4 mps 566 mmHg 31%
    10:00 +15°C° 0 mm 5 mps 567 mmHg 29%
    11:00 +16°C° 0 mm 5 mps 567 mmHg 26%
    12:00 +16°C° 0 mm 5 mps 566 mmHg 27%
    13:00 +17°C° 0 mm 4 mps 566 mmHg 28%
    14:00 +17°C° 0 mm 4 mps 565 mmHg 29%
    15:00 +14°C° 0 mm 4 mps 564 mmHg 36%
    16:00 +12°C° 0 mm 4 mps 564 mmHg 43%
    17:00 +11°C° 0 mm 3 mps 563 mmHg 51%
    18:00 +9°C° 0 mm 3 mps 563 mmHg 58%
    19:00 +8°C° 0 mm 3 mps 563 mmHg 65%
    20:00 +7°C° 0 mm 3 mps 563 mmHg 72%
    21:00 +7°C° 0 mm 3 mps 563 mmHg 73%
    22:00 +7°C° 0 mm 3 mps 562 mmHg 74%
    23:00 +6°C° 0 mm 2 mps 562 mmHg 74%

    27 November, Monday

    Time Temperature Precipitation Wind Pressure Humidity
    00:00 +6°C° 0 mm 2 mps 562 mmHg 76%
    01:00 +6°C° 0 mm 2 mps 561 mmHg 77%
    02:00 +5°C° 0 mm 2 mps 561 mmHg 78%
    03:00 +5°C° 0 mm 2 mps 561 mmHg 79%
    04:00 +5°C° 0 mm 2 mps 561 mmHg 80%
    05:00 +5°C° 0 mm 2 mps 561 mmHg 82%
    06:00 +6°C° 0 mm 2 mps 562 mmHg 75%
    07:00 +8°C° 0 mm 2 mps 563 mmHg 68%
    08:00 +10°C° 0 mm 2 mps 564 mmHg 62%
    09:00 +12°C° 0 mm 2 mps 564 mmHg 55%
    10:00 +14°C° 0 mm 2 mps 565 mmHg 48%
    11:00 +16°C° 0 mm 2 mps 565 mmHg 41%
    12:00 +16°C° 0 mm 2 mps 565 mmHg 40%
    13:00 +17°C° 0 mm 2 mps 564 mmHg 38%
    14:00 +17°C° 0 mm 2 mps 564 mmHg 37%
    15:00 +16°C° 0 mm 2 mps 563 mmHg 45%
    16:00 +14°C° 0 mm 2 mps 562 mmHg 53%
    17:00 +13°C° 0 mm 2 mps 562 mmHg 61%
    18:00 +12°C° 0 mm 2 mps 562 mmHg 67%
    19:00 +10°C° 0 mm 2 mps 562 mmHg 72%
    20:00 +10°C° 0 mm 1 mps 562 mmHg 77%
    21:00 +10°C° 0 mm 1 mps 562 mmHg 79%
    22:00 +9°C° 0 mm 1 mps 561 mmHg 81%
    23:00 +9°C° 0 mm 1 mps 561 mmHg 83%

    28 November, Tuesday

    Time Temperature Precipitation Wind Pressure Humidity
    00:00 +8°C° 0 mm 1 mps 560 mmHg 83%
    01:00 +8°C° 0 mm 1 mps 560 mmHg 84%
    02:00 +7°C° 0 mm 1 mps 559 mmHg 84%
    03:00 +7°C° 0 mm 1 mps 559 mmHg 83%
    04:00 +7°C° 0 mm 1 mps 559 mmHg 82%
    05:00 +6°C° 0 mm 1 mps 559 mmHg 82%
    06:00 +8°C° 0 mm 1 mps 560 mmHg 70%
    07:00 +10°C° 0 mm 1 mps 562 mmHg 59%
    08:00 +13°C° 0 mm 1 mps 563 mmHg 48%
    09:00 +14°C° 0 mm 1 mps 563 mmHg 41%
    10:00 +16°C° 0 mm 2 mps 564 mmHg 34%
    11:00 +18°C° 0 mm 2 mps 564 mmHg 26%
    12:00 +18°C° 0 mm 2 mps 564 mmHg 27%
    13:00 +19°C° 0 mm 2 mps 564 mmHg 27%
    14:00 +19°C° 0 mm 2 mps 563 mmHg 28%
    15:00 +17°C° 0 mm 2 mps 563 mmHg 37%
    16:00 +16°C° 0 mm 2 mps 562 mmHg 46%
    17:00 +14°C° 0 mm 1 mps 561 mmHg 55%
    18:00 +13°C° 0 mm 1 mps 561 mmHg 60%
    19:00 +11°C° 0 mm 0 mps 561 mmHg 66%
    20:00 +10°C° 0 mm 0 mps 562 mmHg 72%
    21:00 +10°C° 0 mm 0 mps 561 mmHg 72%
    22:00 +9°C° 0 mm 0 mps 561 mmHg 73%
    23:00 +9°C° 0 mm 0 mps 561 mmHg 74%

    29 November, Wednesday

    Time Temperature Precipitation Wind Pressure Humidity
    00:00 +9°C° 0 mm 1 mps 560 mmHg 74%
    01:00 +9°C° 0 mm 1 mps 560 mmHg 75%
    02:00 +9°C° 0 mm 1 mps 560 mmHg 75%
    03:00 +8°C° 0 mm 1 mps 560 mmHg 76%
    04:00 +8°C° 0 mm 1 mps 560 mmHg 77%
    05:00 +8°C° 0 mm 1 mps 560 mmHg 79%
    06:00 +9°C° 0 mm 2 mps 562 mmHg 71%
    07:00 +10°C° 0 mm 2 mps 563 mmHg 64%
    08:00 +13°C° 0 mm 2 mps 565 mmHg 56%
    09:00 +15°C° 0 mm 2 mps 565 mmHg 48%
    10:00 +16°C° 0 mm 2 mps 566 mmHg 40%
    11:00 +18°C° 0 mm 2 mps 566 mmHg 32%
    12:00 +18°C° 0 mm 2 mps 566 mmHg 33%
    13:00 +18°C° 0 mm 3 mps 566 mmHg 35%
    14:00 +19°C° 0 mm 3 mps 565 mmHg 36%
    15:00 +17°C° 0 mm 3 mps 565 mmHg 45%
    16:00 +14°C° 0 mm 3 mps 564 mmHg 55%
    17:00 +12°C° 0 mm 3 mps 563 mmHg 64%
    18:00 +13°C° 0 mm 2 mps 564 mmHg 69%
    19:00 +12°C° 0 mm 2 mps 564 mmHg 73%
    20:00 +10°C° 0 mm 2 mps 564 mmHg 78%
    21:00 +9°C° 0 mm 2 mps 563 mmHg 79%
    22:00 +9°C° 0 mm 2 mps 563 mmHg 80%
    23:00 +8°C° 0 mm 2 mps 562 mmHg 82%
    Show more